Fort Polk, LA

7:41 PM CDT on September 25, 2017 (GMT -0500)
Polk Army Air Field

Weather History for KPOE - August, 2013

Change the Weather History Date:

Monday, August 26, 2013

  Actual Average Record
Temperature  
Mean Temperature 80 °F -  
Max Temperature 87 °F 89 °F 100 °F (1999)
Min Temperature 73 °F 71 °F 64 °F (1997)
Cooling Degree Days 15    
Growing Degree Days 30 (Base 50)    
Moisture  
Dew Point 71 °F    
Average Humidity 84    
Maximum Humidity 97    
Minimum Humidity 55    
Precipitation  
Precipitation 0.01 in - - ()
Sea Level Pressure  
Sea Level Pressure 30.14 in    
Wind  
Wind Speed 5 mph (ESE)    
Max Wind Speed 13 mph    
Max Gust Speed 18 mph    
Visibility 10 miles    
Events Rain    
Averages and records for this station are not official NWS values.
T = Trace of Precipitation, MM = Missing Value Source: NWS Daily Summary

Daily Weather History Graph

Daily Weather History Graph

Search for Another Location

Airport or City:

Trip Planner

Search our weather history database for the weather conditions in past years. The results will help you decide how hot, cold, wet, or windy it might be!

Date:

Astronomy

Aug. 26, 2013 Rise Set
Actual Time 6:45 AM CDT 7:42 PM CDT
Civil Twilight 6:20 AM CDT 8:07 PM CDT
Nautical Twilight 5:51 AM CDT 8:37 PM CDT
Astronomical Twilight 5:20 AM CDT 9:07 PM CDT
Moon 11:21 PM CDT 12:20 PM CDT
Length of Visible Light 13h 47m
Length of Day
12h 57m
Waning Gibbous, 66% of the Moon is Illuminated
Aug 26
Waning Gibbous
Aug 28
Last Quarter
Sep 5
New
Sep 12
First Quarter
Sep 19
Full

Hourly Weather History & Observations

Time (CDT) Temp. Heat Index Dew Point Humidity Pressure Visibility Wind Dir Wind Speed Gust Speed Precip Events Conditions
12:55 AM 73.9 °F - 73.0 °F 97% 30.14 in 10.0 mi Calm Calm - N/A   Clear
1:55 AM 73.0 °F - 72.0 °F 96% 30.13 in 10.0 mi East 4.6 mph - N/A   Clear
2:55 AM 73.0 °F - 72.0 °F 96% 30.12 in 10.0 mi East 5.8 mph - N/A   Clear
3:55 AM 73.0 °F - 72.0 °F 96% 30.12 in 10.0 mi ENE 4.6 mph - N/A   Scattered Clouds
4:05 AM 73.4 °F - 71.6 °F 94% 30.12 in 10.0 mi ENE 4.6 mph - N/A   Mostly Cloudy
4:55 AM 73.0 °F - 72.0 °F 96% 30.12 in 10.0 mi East 5.8 mph - N/A   Overcast
5:48 AM 73.4 °F - 71.6 °F 94% 30.14 in 10.0 mi East 6.9 mph - N/A   Mostly Cloudy
5:55 AM 73.0 °F - 72.0 °F 96% 30.14 in 10.0 mi East 8.1 mph - N/A   Mostly Cloudy
6:36 AM 73.4 °F - 71.6 °F 94% 30.14 in 10.0 mi East 4.6 mph - N/A   Overcast
6:55 AM 73.9 °F - 72.0 °F 93% 30.15 in 10.0 mi East 6.9 mph - N/A   Overcast
7:05 AM 73.4 °F - 71.6 °F 94% 30.15 in 10.0 mi East 6.9 mph - N/A   Overcast
7:55 AM 73.9 °F - 72.0 °F 93% 30.17 in 10.0 mi East 4.6 mph - N/A   Overcast
8:39 AM 75.2 °F - 71.6 °F 89% 30.17 in 10.0 mi East 8.1 mph - N/A   Overcast
8:48 AM 75.2 °F - 71.6 °F 89% 30.17 in 10.0 mi East 6.9 mph - N/A   Overcast
8:55 AM 75.0 °F - 72.0 °F 90% 30.17 in 10.0 mi East 6.9 mph - N/A   Overcast
9:55 AM 77.0 °F - 72.0 °F 84% 30.19 in 10.0 mi East 10.4 mph - N/A   Overcast
10:22 AM 80.6 °F 84.6 °F 71.6 °F 74% 30.19 in 10.0 mi East 9.2 mph - N/A   Mostly Cloudy
10:55 AM 82.0 °F 86.3 °F 71.1 °F 69% 30.19 in 10.0 mi East 11.5 mph - N/A   Mostly Cloudy
11:55 AM 84.0 °F 89.0 °F 71.1 °F 65% 30.18 in 10.0 mi ESE 8.1 mph - 0.00 in Rain Light Rain
12:55 PM 87.1 °F 92.8 °F 71.1 °F 59% 30.16 in 10.0 mi SE 12.7 mph - 0.01 in   Partly Cloudy
1:55 PM 87.1 °F 91.3 °F 69.1 °F 55% 30.14 in 10.0 mi ESE 10.4 mph 18.4 mph N/A   Mostly Cloudy
2:55 PM 84.9 °F 90.1 °F 71.1 °F 63% 30.12 in 10.0 mi South 5.8 mph - 0.00 in   Mostly Cloudy
3:55 PM 82.9 °F 88.0 °F 72.0 °F 69% 30.12 in 10.0 mi South 9.2 mph - N/A   Overcast
4:55 PM 79.0 °F - 71.1 °F 77% 30.14 in 10.0 mi SSW 4.6 mph - N/A   Partly Cloudy
5:55 PM 79.0 °F - 70.0 °F 74% 30.13 in 10.0 mi SW 5.8 mph - N/A   Partly Cloudy
6:55 PM 79.0 °F - 70.0 °F 74% 30.12 in 10.0 mi SW 4.6 mph - N/A   Mostly Cloudy
7:55 PM 77.0 °F - 70.0 °F 79% 30.13 in 10.0 mi South 3.5 mph - N/A   Partly Cloudy
8:55 PM 75.9 °F - 71.1 °F 85% 30.13 in 10.0 mi South 3.5 mph - N/A   Clear
9:55 PM 75.0 °F - 72.0 °F 90% 30.13 in 10.0 mi Calm Calm - N/A   Clear
10:55 PM 73.9 °F - 71.1 °F 91% 30.13 in 10.0 mi Calm Calm - N/A   Clear
11:55 PM 73.0 °F - 71.1 °F 93% 30.12 in 10.0 mi Calm Calm - N/A   Clear